Flag for Germany Weather past 2 weeks in Stendal, Saxony-Anhalt, Germany

Now
54 °F

Passing clouds.


Feels Like: 53 °F
Forecast: 44 / 59 °F
Wind: 5 mph from West

Location: Magdeburg

Current Time: Sep 22, 2014 at 5:15:50 AM

Latest Report: Sep 22, 2014 at 4:00 AM


Visibility: 8 mi

Pressure: 29.91 "Hg

Humidity: 86%

Dew point: 50 °F

Location of StendalLocation

Historic Weather in Stendal — Graph

°F

Stendal temperature yesterday

Maximum temperature yesterday: 65 °F (at 1:00 PM)
Minimum temperature yesterday: 57 °F (at 10:00 PM)
Average temperature yesterday: 62 °F

Past Weeks' High & Low Weather Summary

 TemperatureHumidityPressure
High77 °F (Sep 17, 5:00 PM)98% (Sep 7, 4:00 AM)30.19 "Hg (Sep 7, 4:00 AM)
Low52 °F (Sep 9, 4:00 AM)43% (Sep 17, 6:00 PM)29.88 "Hg (Sep 21, 6:00 AM)
Average62 °F85%30.02 "Hg
* Reported Sep 7 4:00 AM — Sep 22 4:00 AM, Stendal, Weather by CustomWeather, © 2014

Note: Actual official high and low records may vary slightly from our data, if they occured in-between our weather recording intervals... More about our weather records

Advertising

Stendal weather history for previous 24 hours

 ConditionsComfort  
Time TempWeatherWind HumidityBarometerVisibility
4:00 AM
Sep 22
54 °FPassing clouds.5 mph86%29.91 "Hg8 mi
3:00 AM55 °FPassing clouds.3 mph84%29.91 "Hg7 mi
2:00 AM55 °FPassing clouds.5 mph86%29.92 "Hg7 mi
1:00 AM55 °FRain. Overcast.5 mph85%29.92 "Hg2 mi
12:00 AM55 °FPassing clouds.5 mph83%29.92 "Hg5 mi
10:00 PM
Sep 21
57 °FOvercast.2 mph76%29.93 "Hg7 mi
9:00 PM58 °FOvercast.2 mph74%29.92 "Hg37 mi
8:00 PM59 °FOvercast.2 mph73%29.90 "Hg19 mi
7:00 PM61 °FOvercast.2 mph74%29.89 "Hg22 mi
6:00 PM63 °FOvercast.2 mph72%29.89 "Hg28 mi
5:00 PM64 °FOvercast.2 mph68%29.89 "Hg28 mi
4:00 PM64 °FOvercast.3 mph70%29.89 "Hg28 mi
3:00 PM62 °FOvercast.3 mph82%29.90 "Hg19 mi
2:00 PM64 °FOvercast.2 mph79%29.90 "Hg12 mi
1:00 PM65 °FOvercast.3 mph75%29.90 "Hg7 mi
12:00 PM64 °FSprinkles. Overcast.2 mph84%29.90 "Hg6 mi
10:00 AM62 °FFog.2 mph89%29.90 "Hg3 mi
9:00 AM61 °FLow clouds.1 mph94%29.89 "Hg2 mi
8:00 AM62 °FLight rain. Overcast.3 mph92%29.89 "Hg2 mi
7:00 AM62 °FFog.1 mph95%29.88 "Hg1 mi
6:00 AM62 °FFog.1 mph96%29.88 "Hg1 mi
Weather by CustomWeather, © 2014

See weather overviewHow to use our weather pages